CZ-4B R/B (29507 NORAD) Tracking and Keplerian Element Data

This shows tracking and keplerian element data for the satellite.

Feedback or suggestion? Click here.




ElementValue
Catalog29507
NameCZ-4B R/B
Epoch Orbit98246
Epoch Day286.89299466
Epoch Year2024
RAAN322.3346
Inclination97.6328
Eccentricity0.0037159
Argument of Perigee233.3828
Mean Anonmoly126.3981
Mean Motion15.09724557
Decay Rate0.00010269
L11 29507U 06046C 24286.89299466 .00010269 00000+0 63025-3 0 9990
L22 29507 97.6328 322.3346 0037159 233.3828 126.3981 15.09724557982461



Live tracking and technical data element details for CZ-4B R/B (NORAD 29507). CZ-4B R/B can be tracked NOW for your location showing map with azimuth and elevation plus other details from your city location.







IsCatalogInMostPopularTable: catalog: 29507, numindb: 1141
Update: records affected: 1



GetName: 29507 CZ-4B R/B

Hit Count: updated at: Wed, 04 Dec 2024 21:21:30 GMT